Weather History for PABV - December, 2013

Change the Weather History Date:

Sunday, December 29, 2013

  Actual Average Record
Temperature  
Mean Temperature 14 °F -  
Max Temperature 21 °F 17 °F 48 °F (2012)
Min Temperature 8 °F 5 °F -14 °F (2008)
Degree Days  
Heating Degree Days 50    
Moisture  
Dew Point 14 °F    
Average Humidity 97    
Maximum Humidity 100    
Minimum Humidity 92    
Precipitation  
Precipitation 0.00 in - - ()
Sea Level Pressure  
Sea Level Pressure 29.86 in    
Wind  
Wind Speed 2 mph (South)    
Max Wind Speed 13 mph    
Max Gust Speed -    
Visibility 10 miles    
Events      
Averages and records for this station are not official NWS values.
T = Trace of Precipitation, MM = Missing Value Source: NWS Daily Summary

Daily Weather History Graph

Daily Weather History Graph

Search for Another Location

Airport or City:

Trip Planner

Search our weather history database for the weather conditions in past years. The results will help you decide how hot, cold, wet, or windy it might be!

Date:

Astronomy

Dec. 29, 2013 Rise Set
Actual Time 10:15 AM AKST 3:45 PM AKST
Civil Twilight 9:13 AM AKST 4:47 PM AKST
Nautical Twilight 8:13 AM AKST 5:47 PM AKST
Astronomical Twilight 7:19 AM AKST 6:41 PM AKST
Moon 6:42 AM AKST (12/29) 1:57 PM AKST (12/29)
Length of Visible Light 7h 34m
Length of Day
5h 29m
Waning Crescent, 10% of the Moon is Illuminated
Dec 29
Waning Crescent
Jan 1
New
Jan 7
First Quarter
Jan 15
Full
Jan 23
Last Quarter

Hourly Weather History & Observations

Time (AKST) Temp. Windchill Dew Point Humidity Pressure Visibility Wind Dir Wind Speed Gust Speed Precip Events Conditions
12:16 AM 17.6 °F - 17.6 °F 100% 29.96 in 10.0 mi Calm Calm - N/A   Overcast
12:36 AM 17.6 °F 12.3 °F 15.8 °F 93% 29.96 in 10.0 mi ENE 3.5 mph - N/A   Overcast
12:56 AM 15.8 °F 6.1 °F 15.8 °F 100% 29.96 in 10.0 mi North 6.9 mph - N/A   Mostly Cloudy
1:16 AM 15.8 °F - 14.0 °F 93% 29.96 in 10.0 mi Calm Calm - N/A   Clear
1:36 AM 15.8 °F - 14.0 °F 93% 29.96 in 10.0 mi Calm Calm - N/A   Partly Cloudy
1:56 AM 14.0 °F - 14.0 °F 100% 29.96 in 10.0 mi Calm Calm - N/A   Clear
2:16 AM 12.2 °F - 12.2 °F 100% 29.97 in 10.0 mi Calm Calm - N/A   Clear
2:36 AM 12.2 °F 4.3 °F 10.4 °F 92% 29.97 in 10.0 mi SSE 4.6 mph - N/A   Clear
2:56 AM 10.4 °F - 10.4 °F 100% 29.97 in 10.0 mi Calm Calm - N/A   Clear
3:16 AM 10.4 °F - 10.4 °F 100% 29.97 in 10.0 mi Calm Calm - N/A   Clear
3:36 AM 10.4 °F - 8.6 °F 92% 29.97 in 10.0 mi Calm Calm - N/A   Clear
3:56 AM 10.4 °F - 8.6 °F 92% 29.97 in 10.0 mi Calm Calm - N/A   Clear
4:16 AM 8.6 °F - 6.8 °F 92% 29.98 in 10.0 mi Calm Calm - N/A   Clear
4:36 AM 10.4 °F - 8.6 °F 92% 29.97 in 10.0 mi Calm Calm - N/A   Clear
4:56 AM 8.6 °F - 8.6 °F 100% 29.96 in 10.0 mi Calm Calm - N/A   Clear
5:16 AM 8.6 °F 2.0 °F 8.6 °F 100% 29.95 in 10.0 mi East 3.5 mph - N/A   Clear
5:36 AM 10.4 °F - 8.6 °F 92% 29.94 in 10.0 mi Calm Calm - N/A   Clear
5:56 AM 10.4 °F - 8.6 °F 92% 29.94 in 10.0 mi Calm Calm - N/A   Mostly Cloudy
6:16 AM 10.4 °F - 10.4 °F 100% 29.93 in 10.0 mi Calm Calm - N/A   Overcast
6:36 AM 10.4 °F - 10.4 °F 100% 29.92 in 10.0 mi Calm Calm - N/A   Overcast
6:56 AM 12.2 °F - 10.4 °F 92% 29.92 in 10.0 mi Calm Calm - N/A   Overcast
7:16 AM 12.2 °F - 12.2 °F 100% 29.91 in 10.0 mi Calm Calm - N/A   Mostly Cloudy
7:36 AM 12.2 °F - 12.2 °F 100% 29.91 in 10.0 mi Calm Calm - N/A   Overcast
7:56 AM 12.2 °F - 12.2 °F 100% 29.90 in 10.0 mi Calm Calm - N/A   Scattered Clouds
8:16 AM 12.2 °F - 12.2 °F 100% 29.90 in 10.0 mi Calm Calm - N/A   Partly Cloudy
8:36 AM 12.2 °F - 12.2 °F 100% 29.90 in 10.0 mi Calm Calm - N/A   Mostly Cloudy
8:56 AM 12.2 °F 0.7 °F 10.4 °F 92% 29.90 in 10.0 mi South 8.1 mph - N/A   Mostly Cloudy
9:16 AM 15.8 °F - 14.0 °F 93% 29.89 in 10.0 mi Calm Calm - N/A   Partly Cloudy
9:36 AM 14.0 °F - 12.2 °F 93% 29.88 in 10.0 mi Calm Calm - N/A   Scattered Clouds
9:56 AM 14.0 °F - 12.2 °F 93% 29.88 in 10.0 mi Calm Calm - N/A   Mostly Cloudy
10:16 AM 14.0 °F 6.5 °F 12.2 °F 93% 29.88 in 10.0 mi SSW 4.6 mph - N/A   Scattered Clouds
10:36 AM 15.8 °F 6.1 °F 14.0 °F 93% 29.89 in 10.0 mi SSW 6.9 mph - N/A   Scattered Clouds
10:56 AM 15.8 °F 6.1 °F 15.8 °F 100% 29.89 in 10.0 mi South 6.9 mph - N/A   Partly Cloudy
11:16 AM 17.6 °F 4.3 °F 17.6 °F 100% 29.90 in 10.0 mi South 12.7 mph - N/A   Mostly Cloudy
11:36 AM 19.4 °F 7.2 °F 19.4 °F 100% 29.89 in 10.0 mi South 11.5 mph - N/A   Overcast
11:56 AM 19.4 °F 8.6 °F 19.4 °F 100% 29.89 in 10.0 mi South 9.2 mph - N/A   Mostly Cloudy
12:16 PM 19.4 °F 12.8 °F 19.4 °F 100% 29.89 in 10.0 mi SSW 4.6 mph - N/A   Mostly Cloudy
12:36 PM 19.4 °F 9.5 °F 19.4 °F 100% 29.88 in 10.0 mi South 8.1 mph - N/A   Mostly Cloudy
12:56 PM 21.2 °F - 19.4 °F 93% 29.88 in 10.0 mi Calm Calm - N/A   Scattered Clouds
1:16 PM 21.2 °F - 19.4 °F 93% 29.87 in 10.0 mi Calm Calm - N/A   Clear
1:36 PM 21.2 °F - 19.4 °F 93% 29.86 in 10.0 mi Calm Calm - N/A   Clear
1:56 PM 21.2 °F - 19.4 °F 93% 29.86 in 10.0 mi Calm Calm - N/A   Clear
2:16 PM 19.4 °F 11.5 °F 19.4 °F 100% 29.85 in 10.0 mi SE 5.8 mph - N/A   Partly Cloudy
2:36 PM 19.4 °F 14.3 °F 19.4 °F 100% 29.85 in 10.0 mi NE 3.5 mph - N/A   Clear
2:56 PM 19.4 °F - 19.4 °F 100% 29.85 in 10.0 mi Calm Calm - N/A   Clear
3:16 PM 17.6 °F - 15.8 °F 93% 29.85 in 10.0 mi Calm Calm - N/A   Mostly Cloudy
3:36 PM 17.6 °F - 17.6 °F 100% 29.83 in 10.0 mi Calm Calm - N/A   Scattered Clouds
3:56 PM 15.8 °F - 15.8 °F 100% 29.82 in 10.0 mi Calm Calm - N/A   Clear
4:16 PM 15.8 °F - 14.0 °F 93% 29.82 in 10.0 mi Calm Calm - N/A   Clear
4:36 PM 15.8 °F 10.2 °F 14.0 °F 93% 29.81 in 7.0 mi NE 3.5 mph - N/A   Partly Cloudy
4:56 PM 15.8 °F - 15.8 °F 100% 29.80 in 10.0 mi Calm Calm - N/A   Clear
5:16 PM 14.0 °F - 14.0 °F 100% 29.80 in 10.0 mi Calm Calm - N/A   Partly Cloudy
5:36 PM 14.0 °F - 14.0 °F 100% 29.79 in 10.0 mi Calm Calm - N/A   Mostly Cloudy
5:56 PM 15.8 °F - 14.0 °F 93% 29.79 in 10.0 mi Calm Calm - N/A   Overcast
6:16 PM 15.8 °F - 15.8 °F 100% 29.79 in 10.0 mi Calm Calm - N/A   Overcast
6:36 PM 15.8 °F 10.2 °F 14.0 °F 93% 29.78 in 10.0 mi South 3.5 mph - N/A   Overcast
6:56 PM 15.8 °F - 15.8 °F 100% 29.78 in 10.0 mi Calm Calm - N/A   Mostly Cloudy
7:16 PM 15.8 °F 8.6 °F 15.8 °F 100% 29.77 in 10.0 mi South 4.6 mph - N/A   Mostly Cloudy
7:36 PM 15.8 °F 10.2 °F 14.0 °F 93% 29.77 in 9.0 mi SSW 3.5 mph - N/A   Mostly Cloudy
7:56 PM 15.8 °F 8.6 °F 15.8 °F 100% 29.77 in 10.0 mi South 4.6 mph - N/A   Scattered Clouds
8:16 PM 15.8 °F 10.2 °F 15.8 °F 100% 29.76 in 10.0 mi South 3.5 mph - N/A   Partly Cloudy
8:36 PM 15.8 °F 8.6 °F 14.0 °F 93% 29.76 in 10.0 mi SSE 4.6 mph - N/A   Clear
8:56 PM 14.0 °F 8.2 °F 14.0 °F 100% 29.75 in 10.0 mi South 3.5 mph - N/A   Mostly Cloudy
9:16 PM 15.8 °F - 14.0 °F 93% 29.74 in 10.0 mi Calm Calm - N/A   Mostly Cloudy
9:36 PM 15.8 °F 10.2 °F 14.0 °F 93% 29.74 in 10.0 mi SSW 3.5 mph - N/A   Partly Cloudy
9:56 PM 15.8 °F - 15.8 °F 100% 29.74 in 10.0 mi Calm Calm - N/A   Partly Cloudy
10:16 PM 15.8 °F 8.6 °F 14.0 °F 93% 29.74 in 10.0 mi South 4.6 mph - N/A   Mostly Cloudy
10:36 PM 17.6 °F 12.3 °F 15.8 °F 93% 29.73 in 10.0 mi South 3.5 mph - N/A   Partly Cloudy
10:56 PM 15.8 °F 10.2 °F 15.8 °F 100% 29.73 in 10.0 mi South 3.5 mph - N/A   Partly Cloudy
11:16 PM 15.8 °F 10.2 °F 14.0 °F 93% 29.73 in 10.0 mi South 3.5 mph - N/A   Partly Cloudy
11:36 PM 15.8 °F - 15.8 °F 100% 29.72 in 10.0 mi Calm Calm - N/A   Partly Cloudy
11:56 PM 15.8 °F - 15.8 °F 100% 29.72 in 10.0 mi Calm Calm - N/A   Mostly Cloudy